Location: Poughquag
(41.6090°N, 73.6820°W)
Time: 03:28:53
(UTC-04:00)

Vanguard 2 - Pass Details

Date: 07 June 2020
Orbit: 552 x 2938 km, 32.9° (Epoch: 06 July)

Event Time Altitude Azimuth Distance (km) Brightness Sun altitude
Rises 22:06:45 0° 274° (W) 5,855 12.7 -14.8°
Reaches altitude 10° 22:11:36 10° 267° (W) 4,448 11.9 -15.4°
Maximum altitude 22:21:11 33° 210° (SSW) 2,213 9.6 -16.5°
Enters shadow 22:25:00 22° 166° (SSE) 2,349 9.4 -16.9°
Drops below altitude 10° 22:27:26 10° 149° (SSE) 2,854 - -17.1°
Sets 22:29:52 0° 138° (SE) 3,550 - -17.4°
